Concordia, KS

7:26 AM CST on February 22, 2017 (GMT -0600)
Blosser Municipal

Weather History for KCNK - July, 2014

Change the Weather History Date:

Tuesday, July 22, 2014

  Actual Average Record
Temperature  
Mean Temperature 89 °F 79 °F  
Max Temperature 102 °F 91 °F 107 °F (2001)
Min Temperature 76 °F 68 °F 54 °F (1970)
Degree Days  
Heating Degree Days 0 0  
Month to date heating degree days 2 0  
Since 1 June heating degree days 3 13  
Since 1 July heating degree days 2 0  
Cooling Degree Days 24 14  
Month to date cooling degree days 251 304  
Year to date cooling degree days 713 658  
Since 1 June cooling degree days 538 569  
Growing Degree Days 38 (Base 50)    
Moisture  
Dew Point 69 °F    
Average Humidity 55    
Maximum Humidity 82    
Minimum Humidity 27    
Precipitation  
Precipitation 0.00 in 0.11 in 1.60 in (1992)
Month to date precipitation 0.91 2.94  
Year to date precipitation 13.44 16.98  
Snow  
Snow 0.00 in 0.00 in T in (1951)
Month to date snowfall 0.0 0.0  
Year to date snowfall 16.9 13.7  
Since 1 July snowfall 0.0 0.0  
Snow Depth 0.00 in    
Sea Level Pressure  
Sea Level Pressure 29.98 in    
Wind  
Wind Speed 10 mph (SW)    
Max Wind Speed 18 mph    
Max Gust Speed 26 mph    
Visibility 10 miles    
Events      
T = Trace of Precipitation, MM = Missing Value Source: NWS Daily Summary

Daily Weather History Graph

Daily Weather History Graph

Search for Another Location

Airport or City:

Trip Planner

Search our weather history database for the weather conditions in past years. The results will help you decide how hot, cold, wet, or windy it might be!

Date:

Astronomy

Jul. 22, 2014 Rise Set
Actual Time 6:21 AM CDT 8:52 PM CDT
Civil Twilight 5:50 AM CDT 9:23 PM CDT
Nautical Twilight 5:11 AM CDT 10:01 PM CDT
Astronomical Twilight 4:28 AM CDT 10:44 PM CDT
Moon 2:55 AM CDT 5:31 PM CDT
Length of Visible Light 15h 32m
Length of Day
14h 31m
Waning Crescent, 16% of the Moon is Illuminated
Jul 22
Waning Crescent
Jul 26
New
Aug 3
First Quarter
Aug 10
Full
Aug 17
Last Quarter

Hourly Weather History & Observations

Time (CDT) Temp. Heat Index Dew Point Humidity Pressure Visibility Wind Dir Wind Speed Gust Speed Precip Events Conditions
12:55 AM 82.9 °F 86.5 °F 69.1 °F 63% 29.90 in 10.0 mi SSW 17.3 mph - N/A   Clear
1:55 AM 82.0 °F 86.3 °F 71.1 °F 69% 29.90 in 10.0 mi SSW 18.4 mph 26.5 mph N/A   Clear
2:55 AM 81.0 °F 85.8 °F 73.0 °F 77% 29.91 in 10.0 mi SSW 13.8 mph - N/A   Clear
3:55 AM 79.0 °F - 72.0 °F 79% 29.91 in 10.0 mi SSW 11.5 mph - N/A   Clear
4:55 AM 77.0 °F - 72.0 °F 84% 29.92 in 10.0 mi SSW 11.5 mph - N/A   Clear
5:55 AM 77.0 °F - 71.1 °F 82% 29.93 in 10.0 mi SW 11.5 mph - N/A   Clear
6:55 AM 75.9 °F - 70.0 °F 82% 29.96 in 9.0 mi WSW 9.2 mph - N/A   Clear
7:55 AM 81.0 °F 84.4 °F 70.0 °F 69% 29.98 in 10.0 mi West 9.2 mph - N/A   Clear
8:55 AM 81.0 °F 84.4 °F 70.0 °F 69% 30.00 in 10.0 mi WSW 10.4 mph - N/A   Clear
9:55 AM 88.0 °F 89.6 °F 64.9 °F 46% 29.99 in 10.0 mi WSW 11.5 mph - N/A   Clear
10:55 AM 93.0 °F 95.0 °F 64.9 °F 39% 29.97 in 10.0 mi WNW 5.8 mph - N/A   Clear
11:55 AM 95.0 °F 98.5 °F 66.2 °F 39% 30.04 in 10.0 mi SW 6.9 mph - N/A   Clear
12:55 PM 96.1 °F 98.3 °F 64.0 °F 35% 29.98 in 10.0 mi SSW 6.9 mph - N/A   Clear
1:55 PM 96.1 °F 98.3 °F 64.0 °F 35% 29.98 in 10.0 mi SW 9.2 mph - N/A   Clear
2:55 PM 99.0 °F 100.5 °F 63.0 °F 30% 29.98 in 10.0 mi SW 9.2 mph - N/A   Clear
3:55 PM 100.0 °F 100.7 °F 60.1 °F 27% 29.97 in 10.0 mi WSW 4.6 mph - N/A   Clear
4:55 PM 100.9 °F 102.1 °F 61.0 °F 27% 29.96 in 10.0 mi SSW 3.5 mph - N/A   Clear
5:55 PM 96.1 °F 104.9 °F 72.0 °F 46% 29.98 in 10.0 mi NNE 15.0 mph - N/A   Partly Cloudy
6:55 PM 95.0 °F 105.2 °F 73.9 °F 50% 29.98 in 10.0 mi NE 11.5 mph - N/A   Clear
7:55 PM 91.9 °F 101.3 °F 73.9 °F 55% 30.00 in 10.0 mi NE 12.7 mph - N/A   Clear
8:55 PM 87.8 °F 97.6 °F 75.2 °F 66% 30.07 in 10.0 mi ENE 8.1 mph - N/A   Clear
9:55 PM 84.0 °F 91.2 °F 73.9 °F 72% 30.04 in 10.0 mi NE 9.2 mph - N/A   Clear
10:55 PM 82.0 °F 86.3 °F 71.1 °F 69% 30.06 in 10.0 mi ENE 8.1 mph - N/A   Clear
11:55 PM 79.0 °F - 69.1 °F 72% 30.09 in 10.0 mi NE 9.2 mph - N/A   Clear